DECAYED

COSMOS 2251 DEB, 35592 (Decayed)

Orbit data source: Space-Track

COSMOS 2251 DEB, 35592 was space debris in LEO originally from a launch on Wed, 16 Jun 1993 UTC launched from the Plesetsk Missile And Space Complex (PKMTR). The debris from Iridium 33, an American commercial communications satellite, has been tracked extensively since its accidental collision with the defunct Russian satellite Cosmos 2251 in 2009. This event, occurring at high speed in low Earth orbit (LEO), generated thousands of pieces of space debris, significantly increasing the risk of further collisions. The Iridium 33 debris cloud has impacted space traffic management and orbital debris mitigation strategies, making it a subject of ongoing study in space situational awareness.

Not visible in the next 10 days
Identifier
35592, 1993-036AMK
Orbit
Decayed
Country
Flag of CISCIS
Related business
Manufacturer
Unknown
Mission
Decayed spacecraft
Bus & Motor
Unknown
Mass
Unknown
Launch date (UTC)
1993-06-16 (33 years ago)
Launch vehicle
Unknown
Launch site
Plesetsk Missile And Space Complex (PKMTR)
Object type
Payload
Rocket body
Debris
Shape & HBR
Unknown shape, 0.1 m
Radar Cross Section
Medium (>0.1 m² and <1 m²)

Expand to show TLE details & history
Last TLE update: 1 year ago

TLE from 1 year ago
0 COSMOS 2251 DEB
1 35592U 93036AMK 25054.22401577  .00960374  38324-3  33160-2 0  9996
2 35592  73.9765 229.0964 0017341  38.2002 322.0456 15.89215222858242
Epoch: 2025-02-23T05:22Z
TLE epoch observation values (Epoch: 2025-02-23T05:22:34.962Z)
Latitude
-0.00003°
Longitude
-4.90896°
Altitude
298.141 km
Speed
7.734 km/s
True Right ascension
15h 16m 23s
True Declination
0° 00' 00"
Sunlit
Object was in partial shadow at epoch
Visualization orbit readout
Latitude
Unknown
Longitude
Unknown
Altitude
Unknown
Speed
Unknown
Apparent Right ascension
Unknown
Apparent Declination
Unknown
Sunlit
N/A
Visualization observer readout
Local Sidereal Time
03:12:35
Azimuth
Unknown
Elevation
Unknown
Doppler factor
Unknown
Orbital elements
Apogee altitude
313.529 km
Perigee altitude
290.361 km
Semi-major axis
6,680.082 km
Eccentricity
0.00173
Inclination
73.9765°
RAAN
229.0964°
Arg. of periapsis
38.2002°
True anomaly
321.92318°
Mean anomaly
322.0456°
Eccentric anomaly
321.98441°
Mean motion
3.97531 °/min
Orbital period
90.56 mins
BSTAR
0.003316

Documentation

Showing up to 5 results
|